Date String (YYYY-MM-DD hh:mm:ss) UTC,Instrument flags,absolute air pressure of the measurement (hPa),sample flow rate (lpm),inlet stack bypass flow (lpm),air temperature of the measurement (°C),ambient temperature measured by the external sensor (°C),aerosol sample conditioner tube jacket temperature (°C),OPC LED temperature (°C),internal box temperature (°C),relative humidity of the measurement (%),span deviation,mass concentration of particles derived from Lorenz-Mie calculation of OPC scattering (μg/m³),mass concentration of particles derived from Lorenz-Mie calculation of OPC scattering (μg/m³),mass concentration of particles derived from Lorenz-Mie calculation of OPC scattering (μg/m³)
DateTimeUTC,F1_M11,P_M11,Q1_M11,Q2_M11,T1_M11,T2_M11,T3_M11,T4_M11,T5_M11,U1_M11,ZSPAN_M11,X0_M11,X2_M11,X1_M11
2024-05-17 05:00:00,SystemResetWarning,0824.0,5.01,000.00,025.0,024.4,000.0,032.9,026.8,018.3,0000.0,0007.15,0003.27,0002.65
2024-05-17 05:01:00,SystemResetWarning,0824.0,5.01,000.00,025.0,024.5,000.0,032.9,026.9,018.1,0000.0,0006.95,0003.24,0002.61
2024-05-17 05:02:00,SystemResetWarning,0824.0,5.01,000.00,025.0,024.5,000.0,033.0,026.9,017.9,0000.0,0006.46,0003.22,0002.57
2024-05-17 05:03:00,SystemResetWarning,0823.9,5.00,000.00,025.1,024.6,000.0,033.0,026.9,017.7,0000.0,0006.40,0003.19,0002.51
2024-05-17 05:04:00,SystemResetWarning,0823.9,4.99,000.00,025.1,024.6,000.0,033.0,027.0,017.5,0000.0,0006.51,0003.16,0002.48
2024-05-17 05:05:00,SystemResetWarning,0823.9,5.00,000.00,025.2,024.7,000.0,033.1,027.0,016.9,0000.0,0006.41,0003.13,0002.42
2024-05-17 05:06:00,SystemResetWarning,0823.8,5.00,000.00,025.2,024.7,000.0,033.1,027.0,016.8,0000.0,0006.48,0003.10,0002.34
2024-05-17 05:07:00,SystemResetWarning,0823.8,5.00,000.00,025.2,024.7,000.0,033.1,027.1,016.7,0000.0,0006.87,0003.04,0002.27
2024-05-17 05:08:00,SystemResetWarning,0823.8,4.99,000.00,025.3,024.8,000.0,033.2,027.1,016.5,0000.0,0007.03,0002.99,0002.21
2024-05-17 05:09:00,SystemResetWarning,0823.8,4.99,000.00,025.3,024.8,000.0,033.2,027.1,015.9,0000.0,0007.37,0002.93,0002.13
2024-05-17 05:10:00,SystemResetWarning,0823.8,5.00,000.00,025.3,024.8,000.0,033.2,027.2,015.8,0000.0,0007.52,0002.83,0002.06
2024-05-17 05:11:00,SystemResetWarning,0823.8,5.00,000.00,025.4,024.8,000.0,033.3,027.2,015.7,0000.0,0007.48,0002.69,0001.99
2024-05-17 05:12:00,SystemResetWarning,0823.8,5.00,000.00,025.4,024.9,000.0,033.3,027.2,015.5,0000.0,0007.48,0002.58,0001.91
2024-05-17 05:13:00,SystemResetWarning,0823.8,4.99,000.00,025.3,024.1,000.0,033.4,026.7,015.6,0000.0,0007.44,0002.52,0001.85
2024-05-17 05:14:00,SystemResetWarning,0823.8,5.01,000.00,024.9,021.9,000.0,033.4,025.5,016.1,0000.0,0007.12,0002.50,0001.82
2024-05-17 05:15:00,SystemResetWarning,0823.8,5.02,000.00,024.6,021.6,000.0,033.4,025.3,016.3,0000.0,0006.22,0002.48,0001.77
2024-05-17 05:16:00,SystemResetWarning,0823.8,4.99,000.00,024.5,021.9,000.0,033.2,025.4,016.5,0000.0,0006.10,0002.43,0001.73
2024-05-17 05:17:00,SystemResetWarning,0823.8,5.00,000.00,024.4,022.3,000.0,033.1,025.6,016.4,0000.0,0005.90,0002.39,0001.69
2024-05-17 05:18:00,SystemResetWarning,0823.8,5.01,000.00,024.5,022.7,000.0,033.0,025.9,016.1,0000.0,0005.31,0002.32,0001.67
2024-05-17 05:19:00,SystemResetWarning,0823.7,5.01,000.00,024.5,023.0,000.0,033.0,026.1,016.4,0000.0,0004.89,0002.24,0001.64
2024-05-17 05:20:00,SystemResetWarning,0823.8,4.99,000.00,024.5,023.2,000.0,032.9,026.2,016.5,0000.0,0004.28,0002.21,0001.62
2024-05-17 05:21:00,SystemResetWarning,0823.7,4.99,000.00,024.6,023.4,000.0,032.9,026.3,016.4,0000.0,0003.97,0002.20,0001.61
2024-05-17 05:22:00,SystemResetWarning,0823.7,4.99,000.00,024.6,023.6,000.0,032.9,026.4,016.4,0000.0,0003.70,0002.20,0001.60
2024-05-17 05:23:00,SystemResetWarning,0823.7,5.00,000.00,024.7,023.8,000.0,032.9,026.5,016.2,0000.0,0003.70,0002.24,0001.60
2024-05-17 05:24:00,SystemResetWarning,0823.7,5.01,000.00,024.7,023.9,000.0,032.9,026.5,016.0,0000.0,0003.65,0002.22,0001.59
2024-05-17 05:25:00,SystemResetWarning,0823.7,5.00,000.00,024.8,024.0,000.0,032.9,026.6,016.0,0000.0,0003.58,0002.18,0001.57
2024-05-17 05:26:00,SystemResetWarning,0823.7,5.00,000.00,024.8,024.1,000.0,032.9,026.6,016.0,0000.0,0003.60,0002.16,0001.56
2024-05-17 05:27:00,SystemResetWarning,0823.7,5.00,000.00,024.9,024.2,000.0,032.9,026.7,016.0,0000.0,0003.67,0002.15,0001.54
2024-05-17 05:28:00,SystemResetWarning,0823.7,4.99,000.00,024.9,024.3,000.0,032.9,026.7,016.0,0000.0,0003.77,0002.16,0001.54
2024-05-17 05:29:00,SystemResetWarning,0823.7,4.99,000.00,024.9,024.4,000.0,033.0,026.8,016.0,0000.0,0003.73,0002.15,0001.54
2024-05-17 05:30:00,SystemResetWarning,0823.7,5.01,000.00,025.0,024.4,000.0,033.0,026.8,016.0,0000.0,0003.77,0002.19,0001.56
2024-05-17 05:31:00,SystemResetWarning,0823.6,5.00,000.00,025.0,024.5,000.0,033.0,026.9,016.1,0000.0,0003.76,0002.18,0001.55
2024-05-17 05:32:00,SystemResetWarning,0823.6,5.00,000.00,025.1,024.5,000.0,033.0,026.9,016.1,0000.0,0003.75,0002.20,0001.56
2024-05-17 05:33:00,SystemResetWarning,0823.6,5.00,000.00,025.1,024.6,000.0,033.1,026.9,015.9,0000.0,0003.84,0002.23,0001.56
2024-05-17 05:34:00,SystemResetWarning,0823.6,5.00,000.00,025.1,024.6,000.0,033.1,027.0,016.0,0000.0,0003.76,0002.20,0001.57
2024-05-17 05:35:00,SystemResetWarning,0823.6,5.00,000.00,025.2,024.6,000.0,033.1,027.0,015.9,0000.0,0003.84,0002.25,0001.57
2024-05-17 05:36:00,SystemResetWarning,0823.6,4.99,000.00,025.2,024.7,000.0,033.2,027.0,015.7,0000.0,0003.83,0002.24,0001.57
2024-05-17 05:37:00,SystemResetWarning,0823.6,4.99,000.00,025.2,024.7,000.0,033.2,027.1,015.7,0000.0,0003.76,0002.23,0001.58
2024-05-17 05:38:00,SystemResetWarning,0823.6,5.00,000.00,025.3,024.7,000.0,033.2,027.1,015.6,0000.0,0003.52,0002.18,0001.58
2024-05-17 05:39:00,SystemResetWarning,0823.6,5.01,000.00,025.3,024.8,000.0,033.3,027.1,015.7,0000.0,0003.30,0002.13,0001.58
2024-05-17 05:40:00,SystemResetWarning,0823.6,5.01,000.00,025.3,024.8,000.0,033.3,027.2,015.4,0000.0,0003.58,0002.17,0001.58
2024-05-17 05:41:00,SystemResetWarning,0823.6,4.99,000.00,025.4,024.8,000.0,033.3,027.2,015.0,0000.0,0003.50,0002.13,0001.58
2024-05-17 05:42:00,SystemResetWarning,0823.6,4.99,000.00,025.4,024.9,000.0,033.3,027.2,014.8,0000.0,0003.51,0002.15,0001.59
2024-05-17 05:43:00,SystemResetWarning,0823.6,5.00,000.00,025.4,024.9,000.0,033.4,027.3,014.8,0000.0,0003.51,0002.13,0001.59
2024-05-17 05:44:00,SystemResetWarning,0823.6,5.01,000.00,025.5,024.9,000.0,033.4,027.3,014.7,0000.0,0003.70,0002.13,0001.59
2024-05-17 05:45:00,SystemResetWarning,0823.6,5.01,000.00,025.5,024.9,000.0,033.4,027.3,014.7,0000.0,0004.95,0002.13,0001.59
2024-05-17 05:46:00,SystemResetWarning,0823.6,4.99,000.00,025.5,025.0,000.0,033.5,027.3,014.7,0000.0,0005.11,0002.11,0001.59
2024-05-17 05:47:00,SystemResetWarning,0823.6,5.00,000.00,025.5,025.0,000.0,033.5,027.3,014.7,0000.0,0005.21,0002.15,0001.60
2024-05-17 05:48:00,SystemResetWarning,0823.6,5.00,000.00,025.5,024.6,000.0,033.5,027.1,014.7,0000.0,0005.17,0002.13,0001.60
2024-05-17 05:49:00,SystemResetWarning,0823.5,5.00,000.00,025.2,022.4,000.0,033.6,025.8,015.0,0000.0,0005.25,0002.19,0001.60
2024-05-17 05:50:00,SystemResetWarning,0823.5,5.00,000.00,024.8,021.8,000.0,033.6,025.5,015.3,0000.0,0005.42,0002.24,0001.61
2024-05-17 05:51:00,SystemResetWarning,0823.5,5.02,000.00,024.6,022.1,000.0,033.5,025.5,015.5,0000.0,0005.23,0002.21,0001.61
2024-05-17 05:52:00,SystemResetWarning,0823.5,4.98,000.00,024.6,022.4,000.0,033.3,025.8,015.7,0000.0,0005.23,0002.21,0001.59
2024-05-17 05:53:00,SystemResetWarning,0823.5,4.99,000.00,024.6,022.8,000.0,033.2,026.1,015.8,0000.0,0005.22,0002.21,0001.60
2024-05-17 05:54:00,SystemResetWarning,0823.5,5.01,000.00,024.7,023.1,000.0,033.2,026.2,015.8,0000.0,0005.23,0002.22,0001.60
2024-05-17 05:55:00,SystemResetWarning,0823.6,5.01,000.00,024.7,023.3,000.0,033.1,026.3,015.8,0000.0,0005.24,0002.22,0001.60
2024-05-17 05:56:00,SystemResetWarning,0823.5,5.00,000.00,024.7,023.5,000.0,033.1,026.4,015.8,0000.0,0003.83,0002.22,0001.60
2024-05-17 05:57:00,SystemResetWarning,0823.5,5.00,000.00,024.8,023.7,000.0,033.1,026.5,015.8,0000.0,0003.65,0002.26,0001.60
2024-05-17 05:58:00,SystemResetWarning,0823.5,5.00,000.00,024.8,023.9,000.0,033.1,026.6,015.7,0000.0,0003.58,0002.22,0001.60
2024-05-17 05:59:00,SystemResetWarning,0823.5,5.00,000.00,024.8,024.0,000.0,033.1,026.6,015.8,0000.0,0003.70,0002.27,0001.60
